Tiempo cada hora Almaguer

Hoy, 28 Julio, Miércoles

Tiempo Temperatura Precipitaciones Viento Presión Humedad
00:00 +12°C° 0 mm 2 mps 588 mmHg 89%
01:00 +12°C° 0 mm 2 mps 588 mmHg 89%
02:00 +12°C° 0 mm 2 mps 587 mmHg 89%
03:00 +12°C° 0 mm 2 mps 587 mmHg 88%
04:00 +12°C° 0 mm 2 mps 587 mmHg 87%
05:00 +12°C° 0 mm 1 mps 587 mmHg 86%
06:00 +12°C° 0 mm 1 mps 587 mmHg 85%
07:00 +13°C° 0 mm 1 mps 588 mmHg 84%
08:00 +15°C° 0 mm 1 mps 589 mmHg 75%
09:00 +19°C° 0 mm 1 mps 590 mmHg 66%
10:00 +21°C° 0 mm 1 mps 591 mmHg 58%
11:00 +22°C° 0.1 mm 1 mps 590 mmHg 56%
12:00 +23°C° 0.1 mm 1 mps 590 mmHg 54%
13:00 +23°C° 0.1 mm 1 mps 590 mmHg 52%
14:00 +23°C° 0.3 mm 1 mps 589 mmHg 54%
15:00 +23°C° 0.3 mm 1 mps 588 mmHg 57%
16:00 +22°C° 0.3 mm 1 mps 588 mmHg 59%
17:00 +20°C° 0.4 mm 1 mps 588 mmHg 69%
18:00 +17°C° 0.4 mm 2 mps 587 mmHg 78%
19:00 +15°C° 0.4 mm 2 mps 587 mmHg 88%
20:00 +14°C° 0.2 mm 2 mps 588 mmHg 88%
21:00 +14°C° 0.2 mm 2 mps 588 mmHg 88%
22:00 +14°C° 0.2 mm 2 mps 588 mmHg 88%
23:00 +14°C° 0.1 mm 2 mps 588 mmHg 88%

Mañana, 29 Julio, Jueves

Tiempo Temperatura Precipitaciones Viento Presión Humedad
00:00 +14°C° 0.1 mm 2 mps 588 mmHg 88%
01:00 +14°C° 0.1 mm 1 mps 588 mmHg 88%
02:00 +14°C° 0.1 mm 2 mps 587 mmHg 87%
03:00 +14°C° 0.1 mm 2 mps 587 mmHg 86%
04:00 +14°C° 0.1 mm 2 mps 587 mmHg 86%
05:00 +14°C° 0.1 mm 2 mps 587 mmHg 85%
06:00 +14°C° 0.1 mm 2 mps 588 mmHg 83%
07:00 +14°C° 0.1 mm 2 mps 588 mmHg 82%
08:00 +16°C° 0.1 mm 2 mps 589 mmHg 75%
09:00 +19°C° 0.1 mm 1 mps 590 mmHg 68%
10:00 +20°C° 0.1 mm 1 mps 590 mmHg 61%
11:00 +21°C° 0.1 mm 1 mps 590 mmHg 60%
12:00 +21°C° 0.1 mm 1 mps 590 mmHg 59%
13:00 +21°C° 0.1 mm 1 mps 590 mmHg 58%
14:00 +21°C° 0 mm 1 mps 589 mmHg 58%
15:00 +20°C° 0 mm 2 mps 589 mmHg 57%
16:00 +20°C° 0 mm 2 mps 588 mmHg 57%
17:00 +18°C° 0 mm 2 mps 588 mmHg 63%
18:00 +17°C° 0 mm 2 mps 588 mmHg 69%
19:00 +15°C° 0 mm 2 mps 588 mmHg 76%
20:00 +14°C° 0 mm 2 mps 588 mmHg 77%
21:00 +14°C° 0 mm 2 mps 588 mmHg 78%
22:00 +13°C° 0 mm 2 mps 589 mmHg 79%
23:00 +13°C° 0 mm 2 mps 588 mmHg 80%

Pasado mañana, 30 Julio, Viernes

Tiempo Temperatura Precipitaciones Viento Presión Humedad
00:00 +13°C° 0 mm 2 mps 588 mmHg 80%
01:00 +12°C° 0 mm 2 mps 588 mmHg 81%
02:00 +12°C° 0 mm 2 mps 588 mmHg 81%
03:00 +12°C° 0 mm 2 mps 587 mmHg 81%
04:00 +12°C° 0 mm 2 mps 587 mmHg 82%
05:00 +12°C° 0 mm 2 mps 588 mmHg 81%
06:00 +13°C° 0 mm 2 mps 588 mmHg 80%
07:00 +13°C° 0 mm 2 mps 588 mmHg 79%
08:00 +15°C° 0 mm 1 mps 589 mmHg 72%
09:00 +18°C° 0 mm 1 mps 590 mmHg 66%
10:00 +21°C° 0 mm 1 mps 591 mmHg 59%
11:00 +21°C° 0 mm 1 mps 591 mmHg 57%
12:00 +21°C° 0 mm 1 mps 591 mmHg 56%
13:00 +22°C° 0 mm 1 mps 590 mmHg 55%
14:00 +22°C° 0 mm 1 mps 590 mmHg 54%
15:00 +22°C° 0 mm 1 mps 589 mmHg 53%
16:00 +23°C° 0 mm 1 mps 589 mmHg 52%
17:00 +20°C° 0 mm 1 mps 589 mmHg 61%
18:00 +17°C° 0 mm 2 mps 588 mmHg 70%
19:00 +15°C° 0 mm 2 mps 588 mmHg 79%
20:00 +14°C° 0 mm 2 mps 588 mmHg 79%
21:00 +14°C° 0 mm 2 mps 589 mmHg 80%
22:00 +13°C° 0 mm 2 mps 589 mmHg 80%
23:00 +13°C° 0 mm 2 mps 589 mmHg 80%

31 Julio, Sábado

Tiempo Temperatura Precipitaciones Viento Presión Humedad
00:00 +14°C° 0 mm 2 mps 588 mmHg 79%
01:00 +14°C° 0 mm 1 mps 588 mmHg 78%
02:00 +13°C° 0 mm 1 mps 588 mmHg 79%
03:00 +13°C° 0 mm 1 mps 588 mmHg 80%
04:00 +13°C° 0 mm 1 mps 588 mmHg 81%
05:00 +13°C° 0 mm 1 mps 588 mmHg 80%
06:00 +13°C° 0 mm 1 mps 588 mmHg 80%
07:00 +14°C° 0 mm 1 mps 589 mmHg 80%
08:00 +16°C° 0 mm 1 mps 589 mmHg 73%
09:00 +19°C° 0 mm 1 mps 590 mmHg 65%
10:00 +21°C° 0 mm 1 mps 591 mmHg 58%
11:00 +22°C° 0 mm 1 mps 591 mmHg 55%
12:00 +23°C° 0 mm 1 mps 591 mmHg 52%
13:00 +24°C° 0 mm 1 mps 591 mmHg 49%
14:00 +24°C° 0.1 mm 1 mps 590 mmHg 51%
15:00 +24°C° 0.1 mm 1 mps 590 mmHg 53%
16:00 +23°C° 0.1 mm 1 mps 589 mmHg 54%
17:00 +21°C° 0.1 mm 1 mps 589 mmHg 64%
18:00 +18°C° 0.1 mm 2 mps 588 mmHg 74%
19:00 +15°C° 0.1 mm 2 mps 588 mmHg 84%
20:00 +15°C° 0.1 mm 2 mps 588 mmHg 84%
21:00 +15°C° 0.1 mm 2 mps 589 mmHg 84%
22:00 +14°C° 0.1 mm 2 mps 589 mmHg 84%
23:00 +14°C° 0 mm 2 mps 589 mmHg 84%

1 Agosto, Domingo

Tiempo Temperatura Precipitaciones Viento Presión Humedad
00:00 +14°C° 0 mm 2 mps 589 mmHg 84%
01:00 +14°C° 0 mm 2 mps 588 mmHg 85%
02:00 +13°C° 0 mm 2 mps 588 mmHg 85%
03:00 +13°C° 0 mm 2 mps 588 mmHg 85%
04:00 +13°C° 0 mm 2 mps 588 mmHg 85%
05:00 +14°C° 0 mm 2 mps 588 mmHg 84%
06:00 +14°C° 0 mm 2 mps 589 mmHg 84%
07:00 +14°C° 0 mm 2 mps 589 mmHg 83%
08:00 +16°C° 0.1 mm 2 mps 590 mmHg 76%
09:00 +18°C° 0.1 mm 1 mps 591 mmHg 70%
10:00 +20°C° 0.1 mm 1 mps 591 mmHg 64%
11:00 +20°C° 0.1 mm 1 mps 591 mmHg 63%
12:00 +19°C° 0.1 mm 2 mps 591 mmHg 63%
13:00 +20°C° 0.1 mm 2 mps 590 mmHg 62%
14:00 +19°C° 0.1 mm 2 mps 590 mmHg 63%
15:00 +19°C° 0.1 mm 2 mps 590 mmHg 64%
16:00 +19°C° 0.1 mm 2 mps 589 mmHg 65%
17:00 +17°C° 0 mm 2 mps 589 mmHg 69%
18:00 +16°C° 0 mm 2 mps 589 mmHg 73%
19:00 +15°C° 0 mm 2 mps 589 mmHg 78%
20:00 +15°C° 0.1 mm 2 mps 589 mmHg 79%
21:00 +14°C° 0.1 mm 2 mps 589 mmHg 80%
22:00 +14°C° 0.1 mm 2 mps 590 mmHg 81%
23:00 +14°C° 0.1 mm 2 mps 589 mmHg 82%

2 Agosto, Lunes

Tiempo Temperatura Precipitaciones Viento Presión Humedad
00:00 +14°C° 0.1 mm 2 mps 589 mmHg 82%
01:00 +14°C° 0.1 mm 2 mps 589 mmHg 82%
02:00 +14°C° 0.3 mm 2 mps 589 mmHg 82%
03:00 +14°C° 0.3 mm 1 mps 588 mmHg 81%
04:00 +14°C° 0.3 mm 1 mps 588 mmHg 81%
05:00 +14°C° 0.4 mm 2 mps 589 mmHg 82%
06:00 +14°C° 0.4 mm 2 mps 589 mmHg 82%
07:00 +14°C° 0.4 mm 2 mps 589 mmHg 82%
08:00 +15°C° 0.4 mm 2 mps 590 mmHg 79%
09:00 +16°C° 0.4 mm 1 mps 590 mmHg 76%
10:00 +16°C° 0.4 mm 1 mps 591 mmHg 73%
11:00 +16°C° 0.5 mm 1 mps 590 mmHg 73%
12:00 +18°C° 0.5 mm 1 mps 590 mmHg 73%
13:00 +18°C° 0.5 mm 1 mps 590 mmHg 73%
14:00 +16°C° 0.4 mm 2 mps 589 mmHg 74%
15:00 +16°C° 0.4 mm 2 mps 589 mmHg 75%
16:00 +16°C° 0.4 mm 2 mps 589 mmHg 76%
17:00 +15°C° 0.4 mm 2 mps 589 mmHg 77%
18:00 +14°C° 0.4 mm 2 mps 589 mmHg 79%
19:00 +14°C° 0.4 mm 2 mps 589 mmHg 80%
20:00 +13°C° 0.1 mm 2 mps 589 mmHg 81%
21:00 +13°C° 0.1 mm 2 mps 589 mmHg 82%
22:00 +13°C° 0.1 mm 2 mps 590 mmHg 82%
23:00 +13°C° 0.1 mm 2 mps 589 mmHg 83%
Mostrar más

Necesitamos Su Consentimiento

Meteoprog y nuestros Proveedores de Servicios pueden almacenar y acceder a sus datos personales como cookies, identificadores de dispositivo u otras tecnologías similares de su dispositivo y procesar dichos datos para personalizar contenido y anuncios, además de ofrecer funciones de redes sociales y analizar el tráfico.

  • Almacenar y/o acceder a información en su dispositivo

    Se puede almacenar o acceder a cookies, identificadores de dispositivo u otra información de su dispositivo para los fines anteriormente indicados.

  • Anuncios y contenido personalizados, medición de anuncios y contenido, percepciones del público, y desarrollo de productos

    Los anuncios y el contenido pueden personalizarse en base a su perfil. Se pueden añadir más datos para personalizar mejor los anuncios y contenidos. Se puede medir el rendimiento de los anuncios y contenidos. Se puede obtener la percepción sobre el público que ha visto los anuncios y contenidos. Dichos datos pueden usarse para desarrollar o mejorar la experiencia del usuario, sistemas y software.

Al hacer clic en ‘Estoy De Acuerdo’ usted permitirá el uso de las cookies, identificadores de dispositivo, balizas web u otras tecnologías similares indicadas. Su configuración puede cambiarse desde el navegador de su dispositivo.

Para ciertos fines, los intereses legítimos pueden ser considerados por encima del consentimiento. Puede leer más sobre ello en nuestra Política de Privacidad y Cookies.